Time,TemperatureF,DewpointF,PressureIn,WindDirection,WindDirectionDegrees,WindSpeedMPH,WindSpeedGustMPH,Humidity,HourlyPrecipIn,Conditions,Clouds,dailyrainin,SoftwareType,DateUTC
2013-03-07 00:01:00,26.0,23.0,30.34,NW,305,0.0,3.0,89,0.00,,,0.27,,2013-03-07 06:01:00,
2013-03-07 00:11:00,26.0,23.0,30.34,NW,305,0.0,3.0,89,0.00,,,0.27,,2013-03-07 06:11:00,
2013-03-07 00:21:00,26.0,23.0,30.35,West,270,0.0,2.0,89,0.00,,,0.27,,2013-03-07 06:21:00,
2013-03-07 00:32:00,26.0,23.0,30.35,North,10,0.0,4.0,90,0.00,,,0.27,,2013-03-07 06:32:00,
2013-03-07 00:42:00,26.0,23.0,30.35,North,10,0.0,4.0,90,0.00,,,0.27,,2013-03-07 06:42:00,
2013-03-07 00:51:00,26.0,23.0,30.35,West,261,1.0,4.0,89,0.00,,,0.27,,2013-03-07 06:51:00,
2013-03-07 01:01:00,25.0,22.0,30.35,WNW,283,1.0,4.0,90,0.00,,,0.27,,2013-03-07 07:01:00,
2013-03-07 01:11:00,25.0,22.0,30.35,WNW,283,1.0,4.0,90,0.00,,,0.27,,2013-03-07 07:11:00,
2013-03-07 01:21:00,25.0,22.0,30.36,West,281,1.0,4.0,90,0.00,,,0.27,,2013-03-07 07:21:00,
2013-03-07 01:32:00,25.0,22.0,30.37,WNW,283,0.0,3.0,90,0.00,,,0.27,,2013-03-07 07:32:00,
2013-03-07 01:42:00,25.0,22.0,30.37,WNW,283,0.0,3.0,90,0.00,,,0.27,,2013-03-07 07:42:00,
2013-03-07 01:52:00,25.0,22.0,30.37,West,281,0.0,4.0,90,0.00,,,0.27,,2013-03-07 07:52:00,
2013-03-07 02:02:00,25.0,22.0,30.38,WNW,282,0.0,3.0,89,0.00,,,0.27,,2013-03-07 08:02:00,
2013-03-07 02:12:00,25.0,22.0,30.38,WNW,282,0.0,3.0,89,0.00,,,0.27,,2013-03-07 08:12:00,
2013-03-07 02:22:00,25.0,22.0,30.38,West,281,1.0,4.0,90,0.00,,,0.27,,2013-03-07 08:22:00,
2013-03-07 02:33:00,25.0,22.0,30.38,WNW,286,1.0,5.0,90,0.00,,,0.27,,2013-03-07 08:33:00,
2013-03-07 02:43:00,25.0,22.0,30.38,WNW,286,1.0,5.0,90,0.00,,,0.27,,2013-03-07 08:43:00,
2013-03-07 02:53:00,25.0,22.0,30.38,WNW,303,1.0,5.0,90,0.00,,,0.27,,2013-03-07 08:53:00,
2013-03-07 03:03:00,25.0,22.0,30.38,West,265,0.0,4.0,89,0.00,,,0.27,,2013-03-07 09:03:00,
2013-03-07 03:13:00,25.0,22.0,30.38,West,265,0.0,4.0,89,0.00,,,0.27,,2013-03-07 09:13:00,
2013-03-07 03:23:00,25.0,22.0,30.38,WNW,285,1.0,3.0,90,0.00,,,0.27,,2013-03-07 09:23:00,
2013-03-07 03:33:00,25.0,22.0,30.38,WNW,284,1.0,2.0,90,0.00,,,0.27,,2013-03-07 09:33:00,
2013-03-07 03:42:00,25.0,22.0,30.38,WNW,284,1.0,2.0,90,0.00,,,0.27,,2013-03-07 09:42:00,
2013-03-07 03:52:00,25.0,22.0,30.38,West,275,1.0,4.0,90,0.00,,,0.27,,2013-03-07 09:52:00,
2013-03-07 04:03:00,25.0,22.0,30.38,West,275,1.0,3.0,90,0.00,,,0.27,,2013-03-07 10:03:00,
2013-03-07 04:13:00,25.0,22.0,30.38,West,275,1.0,3.0,90,0.00,,,0.27,,2013-03-07 10:13:00,
2013-03-07 04:23:00,25.0,22.0,30.38,West,275,0.0,3.0,90,0.00,,,0.27,,2013-03-07 10:23:00,
2013-03-07 04:33:00,25.0,22.0,30.38,West,275,0.0,2.0,90,0.00,,,0.27,,2013-03-07 10:33:00,
2013-03-07 04:42:00,25.0,22.0,30.38,West,275,0.0,2.0,90,0.00,,,0.27,,2013-03-07 10:42:00,
2013-03-07 04:52:00,25.0,22.0,30.38,West,275,0.0,2.0,90,0.00,,,0.27,,2013-03-07 10:52:00,
2013-03-07 05:03:00,25.0,22.0,30.38,West,275,0.0,2.0,90,0.00,,,0.27,,2013-03-07 11:03:00,
2013-03-07 05:12:00,25.0,22.0,30.38,West,275,0.0,2.0,90,0.00,,,0.27,,2013-03-07 11:12:00,
2013-03-07 05:23:00,25.0,22.0,30.38,West,275,0.0,2.0,90,0.00,,,0.27,,2013-03-07 11:23:00,
2013-03-07 05:33:00,24.0,22.0,30.38,WSW,246,0.0,7.0,90,0.00,,,0.27,,2013-03-07 11:33:00,
2013-03-07 05:43:00,24.0,22.0,30.38,WSW,246,0.0,7.0,90,0.00,,,0.27,,2013-03-07 11:43:00,
2013-03-07 05:53:00,24.0,22.0,30.39,WSW,246,1.0,3.0,90,0.00,,,0.27,,2013-03-07 11:53:00,
2013-03-07 06:03:00,24.0,22.0,30.40,East,82,0.0,6.0,90,0.00,,,0.27,,2013-03-07 12:03:00,
2013-03-07 06:12:00,24.0,22.0,30.40,East,82,0.0,6.0,90,0.00,,,0.27,,2013-03-07 12:12:00,
2013-03-07 06:33:00,24.0,22.0,30.40,West,265,0.0,3.0,90,0.00,,,0.27,,2013-03-07 12:33:00,
2013-03-07 06:42:00,24.0,22.0,30.40,West,265,0.0,3.0,90,0.00,,,0.27,,2013-03-07 12:42:00,
2013-03-07 06:52:00,24.0,22.0,30.40,West,274,0.0,4.0,90,0.00,,,0.27,,2013-03-07 12:52:00,
2013-03-07 07:02:00,24.0,22.0,30.41,West,259,0.0,3.0,90,0.00,,,0.27,,2013-03-07 13:02:00,
2013-03-07 07:12:00,24.0,22.0,30.41,West,259,0.0,3.0,90,0.00,,,0.27,,2013-03-07 13:12:00,
2013-03-07 07:22:00,24.0,21.0,30.41,NW,316,0.0,4.0,89,0.00,,,0.27,,2013-03-07 13:22:00,
2013-03-07 07:32:00,25.0,22.0,30.41,West,259,0.0,3.0,89,0.00,,,0.27,,2013-03-07 13:32:00,
2013-03-07 07:42:00,25.0,22.0,30.41,West,259,0.0,3.0,89,0.00,,,0.27,,2013-03-07 13:42:00,
2013-03-07 07:52:00,25.0,22.0,30.41,West,259,0.0,2.0,89,0.00,,,0.27,,2013-03-07 13:52:00,
2013-03-07 08:02:00,26.0,23.0,30.42,West,259,0.0,3.0,88,0.00,,,0.27,,2013-03-07 14:02:00,
2013-03-07 08:12:00,26.0,23.0,30.42,West,259,0.0,3.0,88,0.00,,,0.27,,2013-03-07 14:12:00,
2013-03-07 08:22:00,26.0,23.0,30.42,WSW,257,1.0,4.0,87,0.00,,,0.27,,2013-03-07 14:22:00,
2013-03-07 08:33:00,27.0,24.0,30.43,West,260,0.0,3.0,87,0.00,,,0.27,,2013-03-07 14:33:00,
2013-03-07 08:42:00,27.0,24.0,30.43,West,260,0.0,3.0,87,0.00,,,0.27,,2013-03-07 14:42:00,
2013-03-07 08:53:00,27.0,23.0,30.43,North,351,1.0,3.0,86,0.00,,,0.27,,2013-03-07 14:53:00,
2013-03-07 09:03:00,28.0,24.0,30.44,NW,316,1.0,4.0,84,0.00,,,0.27,,2013-03-07 15:03:00,
2013-03-07 09:12:00,28.0,24.0,30.44,NW,316,1.0,4.0,84,0.00,,,0.27,,2013-03-07 15:12:00,
2013-03-07 09:23:00,28.0,24.0,30.44,NNW,333,1.0,4.0,86,0.00,,,0.27,,2013-03-07 15:23:00,
2013-03-07 09:32:00,29.0,25.0,30.44,NNW,338,1.0,4.0,85,0.00,,,0.27,,2013-03-07 15:32:00,
2013-03-07 09:42:00,29.0,25.0,30.44,NNW,338,1.0,4.0,85,0.00,,,0.27,,2013-03-07 15:42:00,
2013-03-07 09:52:00,29.0,25.0,30.44,NW,324,1.0,4.0,83,0.00,,,0.27,,2013-03-07 15:52:00,
2013-03-07 10:02:00,30.0,25.0,30.45,North,355,2.0,5.0,82,0.01,,,0.28,,2013-03-07 16:02:00,
2013-03-07 10:12:00,30.0,25.0,30.45,North,355,2.0,5.0,82,0.01,,,0.28,,2013-03-07 16:12:00,
2013-03-07 10:23:00,31.0,26.0,30.45,NW,315,1.0,5.0,80,0.01,,,0.28,,2013-03-07 16:23:00,
2013-03-07 10:32:00,31.0,26.0,30.45,North,9,2.0,4.0,80,0.01,,,0.28,,2013-03-07 16:32:00,
2013-03-07 10:42:00,31.0,26.0,30.45,North,9,2.0,4.0,80,0.01,,,0.28,,2013-03-07 16:42:00,
2013-03-07 10:53:00,32.0,27.0,30.44,NNW,338,1.0,4.0,80,0.02,,,0.28,,2013-03-07 16:53:00,
2013-03-07 11:02:00,33.0,27.0,30.43,North,360,2.0,4.0,77,0.02,,,0.30,,2013-03-07 17:02:00,
2013-03-07 11:12:00,33.0,27.0,30.43,North,360,2.0,4.0,77,0.02,,,0.30,,2013-03-07 17:12:00,
2013-03-07 11:22:00,33.0,26.0,30.43,West,263,1.0,4.0,76,0.03,,,0.27,,2013-03-07 17:22:00,
2013-03-07 11:32:00,33.0,25.0,30.44,NW,309,1.0,4.0,73,0.04,,,0.28,,2013-03-07 17:32:00,
2013-03-07 11:43:00,33.0,25.0,30.44,NW,309,1.0,4.0,73,0.04,,,0.28,,2013-03-07 17:43:00,
2013-03-07 11:54:00,33.0,25.0,30.44,NW,316,1.0,5.0,73,0.04,,,0.28,,2013-03-07 17:54:00,
2013-03-07 12:03:00,33.0,25.0,30.44,West,261,2.0,5.0,72,0.04,,,0.30,,2013-03-07 18:03:00,
2013-03-07 12:12:00,33.0,25.0,30.44,West,261,2.0,5.0,72,0.04,,,0.30,,2013-03-07 18:12:00,
2013-03-07 12:22:00,33.0,25.0,30.44,WSW,252,1.0,7.0,71,0.03,,,0.23,,2013-03-07 18:22:00,
2013-03-07 12:32:00,33.0,25.0,30.44,WSW,237,1.0,6.0,73,0.03,,,0.24,,2013-03-07 18:32:00,
2013-03-07 12:42:00,33.0,25.0,30.44,WSW,237,1.0,6.0,73,0.03,,,0.24,,2013-03-07 18:42:00,
2013-03-07 12:53:00,33.0,24.0,30.43,SW,217,2.0,5.0,70,0.03,,,0.25,,2013-03-07 18:53:00,
2013-03-07 13:03:00,33.0,24.0,30.43,West,279,3.0,6.0,69,0.02,,,0.25,,2013-03-07 19:03:00,
2013-03-07 13:12:00,33.0,24.0,30.43,West,279,3.0,6.0,69,0.02,,,0.25,,2013-03-07 19:12:00,
2013-03-07 13:23:00,33.0,24.0,30.43,WNW,291,2.0,6.0,70,0.02,,,0.19,,2013-03-07 19:23:00,
2013-03-07 13:34:00,33.0,24.0,30.43,WNW,291,2.0,6.0,70,0.02,,,0.19,,2013-03-07 19:34:00,
2013-03-07 13:43:00,33.0,24.0,30.43,WNW,291,2.0,6.0,70,0.02,,,0.19,,2013-03-07 19:43:00,
2013-03-07 13:53:00,34.0,26.0,30.42,West,278,1.0,5.0,71,0.00,,,0.19,,2013-03-07 19:53:00,
2013-03-07 14:02:00,34.0,25.0,30.41,West,272,2.0,9.0,70,0.00,,,0.19,,2013-03-07 20:02:00,
2013-03-07 14:13:00,34.0,25.0,30.41,West,272,2.0,9.0,70,0.00,,,0.19,,2013-03-07 20:13:00,
2013-03-07 14:22:00,34.0,26.0,30.41,WSW,248,2.0,6.0,71,0.00,,,0.15,,2013-03-07 20:22:00,
2013-03-07 14:33:00,34.0,25.0,30.41,WNW,288,2.0,6.0,70,0.00,,,0.15,,2013-03-07 20:33:00,
2013-03-07 14:42:00,34.0,25.0,30.41,WNW,288,2.0,6.0,70,0.00,,,0.15,,2013-03-07 20:42:00,
2013-03-07 14:54:00,33.0,24.0,30.41,South,169,2.0,5.0,69,0.00,,,0.15,,2013-03-07 20:54:00,
2013-03-07 15:02:00,33.0,24.0,30.42,WNW,291,2.0,5.0,69,0.00,,,0.15,,2013-03-07 21:02:00,
2013-03-07 15:12:00,33.0,24.0,30.42,WNW,291,2.0,5.0,69,0.00,,,0.15,,2013-03-07 21:12:00,
2013-03-07 15:22:00,33.0,25.0,30.42,WSW,251,3.0,6.0,72,0.00,,,0.12,,2013-03-07 21:22:00,
2013-03-07 15:32:00,33.0,25.0,30.42,NNW,340,1.0,4.0,71,0.00,,,0.12,,2013-03-07 21:32:00,
2013-03-07 15:42:00,33.0,25.0,30.42,NNW,340,1.0,4.0,71,0.00,,,0.12,,2013-03-07 21:42:00,
2013-03-07 15:53:00,33.0,25.0,30.42,NNW,340,1.0,4.0,71,0.00,,,0.12,,2013-03-07 21:53:00,
2013-03-07 16:01:00,33.0,24.0,30.42,NNW,341,1.0,5.0,70,0.00,,,0.12,,2013-03-07 22:01:00,
2013-03-07 16:12:00,33.0,24.0,30.42,NNW,341,1.0,5.0,70,0.00,,,0.12,,2013-03-07 22:12:00,
2013-03-07 16:22:00,34.0,25.0,30.42,NNW,344,1.0,4.0,69,0.00,,,0.10,,2013-03-07 22:22:00,
2013-03-07 16:32:00,33.0,24.0,30.42,WNW,282,1.0,5.0,69,0.00,,,0.10,,2013-03-07 22:32:00,
2013-03-07 16:42:00,33.0,24.0,30.42,WNW,282,1.0,5.0,69,0.00,,,0.10,,2013-03-07 22:42:00,
2013-03-07 17:02:00,34.0,25.0,30.42,NNE,32,0.0,7.0,68,0.00,,,0.10,,2013-03-07 23:02:00,
2013-03-07 17:12:00,34.0,25.0,30.42,NNE,32,0.0,7.0,68,0.00,,,0.10,,2013-03-07 23:12:00,
2013-03-07 17:22:00,34.0,25.0,30.41,NNE,33,0.0,2.0,68,0.00,,,0.09,,2013-03-07 23:22:00,
2013-03-07 17:43:00,34.0,24.0,30.42,NNE,33,0.0,2.0,67,0.00,,,0.09,,2013-03-07 23:43:00,
2013-03-07 17:54:00,34.0,24.0,30.42,NNE,33,0.0,2.0,67,0.00,,,0.09,,2013-03-07 23:54:00,
2013-03-07 18:03:00,31.0,23.0,30.42,WSW,252,0.0,0.0,73,0.00,,,0.09,,2013-03-08 00:03:00,
2013-03-07 18:12:00,31.0,23.0,30.42,WSW,252,0.0,0.0,73,0.00,,,0.09,,2013-03-08 00:12:00,
2013-03-07 18:23:00,31.0,25.0,30.42,WSW,252,0.0,0.0,77,0.00,,,0.09,,2013-03-08 00:23:00,
2013-03-07 18:43:00,30.0,24.0,30.43,WSW,252,0.0,1.0,78,0.00,,,0.09,,2013-03-08 00:43:00,
2013-03-07 18:53:00,28.0,23.0,30.43,WSW,252,0.0,0.0,80,0.00,,,0.09,,2013-03-08 00:53:00,
2013-03-07 19:02:00,28.0,23.0,30.43,WSW,252,0.0,0.0,81,0.00,,,0.09,,2013-03-08 01:02:00,
2013-03-07 19:11:00,28.0,23.0,30.43,WSW,252,0.0,0.0,81,0.00,,,0.09,,2013-03-08 01:11:00,
2013-03-07 19:21:00,27.0,23.0,30.44,WSW,252,0.0,0.0,83,0.00,,,0.09,,2013-03-08 01:21:00,
2013-03-07 19:32:00,26.0,22.0,30.44,WSW,252,0.0,0.0,85,0.00,,,0.09,,2013-03-08 01:32:00,
2013-03-07 19:42:00,26.0,22.0,30.44,WSW,252,0.0,0.0,85,0.00,,,0.09,,2013-03-08 01:42:00,
2013-03-07 19:52:00,26.0,22.0,30.44,WSW,252,0.0,0.0,86,0.00,,,0.09,,2013-03-08 01:52:00,
2013-03-07 20:01:00,25.0,22.0,30.43,WSW,252,0.0,0.0,87,0.00,,,0.09,,2013-03-08 02:01:00,
2013-03-07 20:11:00,25.0,22.0,30.43,WSW,252,0.0,0.0,87,0.00,,,0.09,,2013-03-08 02:11:00,
2013-03-07 20:22:00,25.0,22.0,30.43,WSW,252,0.0,0.0,87,0.00,,,0.09,,2013-03-08 02:22:00,
2013-03-07 20:32:00,25.0,22.0,30.43,WSW,252,0.0,0.0,88,0.00,,,0.09,,2013-03-08 02:32:00,
2013-03-07 20:42:00,25.0,22.0,30.43,WSW,252,0.0,0.0,88,0.00,,,0.09,,2013-03-08 02:42:00,
2013-03-07 20:53:00,24.0,21.0,30.43,WSW,252,0.0,0.0,88,0.00,,,0.09,,2013-03-08 02:53:00,
2013-03-07 21:02:00,24.0,21.0,30.44,West,272,0.0,2.0,87,0.00,,,0.09,,2013-03-08 03:02:00,
2013-03-07 21:12:00,24.0,21.0,30.44,West,272,0.0,2.0,87,0.00,,,0.09,,2013-03-08 03:12:00,
2013-03-07 21:22:00,24.0,21.0,30.44,West,272,0.0,0.0,87,0.00,,,0.09,,2013-03-08 03:22:00,
2013-03-07 21:32:00,23.0,19.0,30.44,West,272,0.0,1.0,86,0.00,,,0.09,,2013-03-08 03:32:00,
2013-03-07 21:42:00,23.0,19.0,30.44,West,272,0.0,1.0,86,0.00,,,0.09,,2013-03-08 03:42:00,
2013-03-07 21:53:00,22.0,19.0,30.44,West,274,0.0,0.0,87,0.00,,,0.09,,2013-03-08 03:53:00,
2013-03-07 22:01:00,21.0,18.0,30.45,West,274,0.0,0.0,88,0.00,,,0.09,,2013-03-08 04:01:00,
2013-03-07 22:11:00,21.0,18.0,30.45,West,274,0.0,0.0,88,0.00,,,0.09,,2013-03-08 04:11:00,
2013-03-07 22:22:00,20.0,17.0,30.45,West,274,0.0,0.0,88,0.00,,,0.09,,2013-03-08 04:22:00,
2013-03-07 22:32:00,20.0,18.0,30.45,West,274,0.0,0.0,90,0.00,,,0.09,,2013-03-08 04:32:00,
2013-03-07 22:42:00,20.0,18.0,30.45,West,274,0.0,0.0,90,0.00,,,0.09,,2013-03-08 04:42:00,
2013-03-07 22:52:00,20.0,18.0,30.44,West,274,0.0,0.0,90,0.00,,,0.09,,2013-03-08 04:52:00,
2013-03-07 23:02:00,20.0,18.0,30.44,West,274,0.0,0.0,90,0.00,,,0.09,,2013-03-08 05:02:00,
2013-03-07 23:12:00,20.0,18.0,30.44,West,274,0.0,0.0,90,0.00,,,0.09,,2013-03-08 05:12:00,
2013-03-07 23:22:00,20.0,18.0,30.44,WSW,242,0.0,0.0,91,0.00,,,0.09,,2013-03-08 05:22:00,
2013-03-07 23:32:00,20.0,17.0,30.45,WSW,242,0.0,0.0,89,0.00,,,0.09,,2013-03-08 05:32:00,
2013-03-07 23:42:00,20.0,17.0,30.45,WSW,242,0.0,0.0,89,0.00,,,0.09,,2013-03-08 05:42:00,
2013-03-07 23:52:00,19.0,16.0,30.45,East,85,0.0,0.0,89,0.00,,,0.09,,2013-03-08 05:52:00,